Location: Tyler Bend Campground
(35.9875°N, 92.7606°W)
Time: 23:14:22
(UTC-05:00)

CZ-2C R/B - Visible Passes

Search period start: 24 October 2014 00:00
Search period end: 02 November 2014 23:00
Orbit: 668 x 787 km, 98.1° (Epoch: 24 October)

Date Brightness Start Highest point End Pass type
(mag) Time Alt. Az. Time Alt. Az. Time Alt. Az.
24 Oct 2.8 19:39:30 10° SE 19:44:10 40° ENE 19:48:42 10° N visible
24 Oct 4.8 21:19:00 10° SW 21:22:31 19° W 21:25:59 10° NW visible
25 Oct 4.0 18:54:32 10° E 18:57:00 14° ENE 18:59:26 10° NE visible
25 Oct 2.9 20:29:51 10° S 20:34:47 59° W 20:39:35 10° NNW visible
26 Oct 2.7 19:42:36 10° SE 19:47:18 44° ENE 19:51:53 10° N visible
26 Oct 4.9 21:22:26 10° SW 21:25:41 17° W 21:28:55 10° NW visible
27 Oct 3.9 18:57:25 10° E 19:00:07 15° ENE 19:02:46 10° NNE visible
27 Oct 3.0 20:33:04 10° S 20:37:56 54° W 20:42:40 10° NNW visible
28 Oct 2.6 19:45:43 10° SE 19:50:26 47° ENE 19:55:02 10° N visible
28 Oct 5.0 21:25:54 10° SW 21:28:52 16° W 21:31:48 10° NW visible
29 Oct 3.9 19:00:19 10° ESE 19:03:13 16° ENE 19:06:04 10° NNE visible
29 Oct 3.2 20:37:09 15° S 20:41:05 50° W 20:45:45 10° NNW visible
30 Oct 2.5 19:49:50 16° SE 19:53:34 51° ENE 19:58:11 10° N visible
30 Oct 5.1 21:29:24 10° SW 21:32:02 14° W 21:34:39 10° WNW visible
31 Oct 3.8 19:03:15 10° ESE 19:06:19 17° ENE 19:09:21 10° NNE visible
31 Oct 3.3 20:41:50 26° SSW 20:44:14 45° W 20:48:49 10° NNW visible
01 Nov 2.4 19:54:17 27° SE 19:56:41 55° ENE 20:01:19 10° N visible
01 Nov 5.2 21:33:44 12° WSW 21:35:12 13° W 21:37:25 10° WNW visible
02 Nov 3.7 18:06:40 12° ESE 18:09:25 18° ENE 18:12:36 10° NNE visible
02 Nov 3.5 19:46:07 34° SW 19:47:22 41° W 19:51:52 10° NNW visible
